Temp
15 15 15 16 16 17 17 17 18 18 19 19 20 20 21 21 22 23 24 24 24 24 24 24 24 23 22 22 23 21 19 20 22 23 24 25 24 26 26 23 24 24 23 23 22
15 15 15 16 16 17 17 17 17 18 18 19 19 20 20 21 22 24 25 24 24 24 24 25 24 23 22 22 23 21 20 22 23 22 23 25 26 25 25 24 24 23 23 23 22
15 15 16 16 16 16 17 17 17 18 18 19 19 19 20 21 22 24 24 25 24 24 24 24 23 23 23 24 23 22 22 24 25 26 26 25 25 27 25 24 23 23 23 23 22
15 15 15 16 16 16 17 17 17 18 18 19 19 19 20 20 22 23 24 24 24 24 24 25 23 23 23 24 26 23 26 26 26 26 27 24 24 26 26 25 24 24 24 23 23
15 15 16 16 16 17 17 17 17 17 18 18 19 19 19 20 23 24 23 24 24 24 25 25 23 24 24 26 26 26 28 27 29 29 28 28 25 28 26 25 24 23 24 24 23
15 15 16 16 16 17 17 17 18 17 18 18 18 18 19 17 23 23 24 24 25 24 25 24 25 25 25 27 26 29 29 28 28 28 30 28 28 28 25 24 24 23 24 24 24
15 15 16 16 17 17 18 18 18 18 18 18 18 18 19 23 23 23 23 23 24 24 25 25 25 24 26 25 28 29 27 28 30 30 29 29 28 26 25 24 24 24 24 24 24
15 15 16 16 17 18 18 18 18 18 18 18 18 17 20 23 23 23 23 24 24 24 24 25 25 25 25 27 27 27 26 26 28 30 29 28 24 26 25 24 24 24 24 24 24
15 15 16 17 17 18 18 18 19 18 18 18 17 17 21 23 24 24 24 24 24 24 24 25 25 26 27 24 22 22 24 26 27 30 28 26 25 26 25 25 24 24 24 24 25
15 16 16 17 17 18 18 19 19 18 18 17 17 15 22 24 24 24 24 24 24 25 25 25 25 21 20 20 21 23 24 25 26 29 28 26 26 26 26 25 25 25 25 25 25
15 16 16 17 17 18 19 19 18 18 18 19 19 20 22 23 24 24 24 24 24 24 22 24 21 20 21 21 23 24 24 24 27 30 29 25 26 26 26 25 25 25 25 26 25
15 15 16 17 17 17 18 18 18 18 17 19 20 20 22 23 23 24 24 24 24 21 22 21 19 21 23 24 24 24 24 24 26 29 27 26 26 26 26 26 25 25 25 26 26
15 15 16 17 18 18 18 18 18 18 17 19 22 23 23 24 23 24 24 24 23 22 22 19 21 24 24 24 24 23 23 24 25 28 27 27 24 24 26 26 26 26 26 26 26
15 15 16 18 18 18 18 18 18 18 12 17 21 24 24 24 23 25 25 24 22 22 21 20 23 24 24 24 23 21 26 27 27 26 24 28 24 21 23 25 25 26 26 26 26
15 15 16 17 17 18 18 18 18 18 17 22 23 25 25 24 25 26 26 25 23 23 21 21 24 23 23 24 25 24 25 26 28 25 26 25 22 24 23 23 23 25 26 26 27
16 15 17 17 17 17 18 18 18 14 19 22 24 23 22 24 24 25 26 26 25 24 22 21 25 24 24 26 25 27 27 24 23 21 21 23 22 23 23 24 25 24 26 26 27
16 16 17 17 18 17 17 18 14 15 21 22 22 22 21 22 23 23 23 22 20 21 19 21 23 24 26 25 25 26 20 20 22 21 21 21 24 24 25 26 27 24 25 27 27
16 17 17 17 17 17 17 14 16 20 20 22 21 21 22 22 22 22 21 20 21 19 18 19 19 24 26 24 24 23 21 19 22 21 22 22 22 25 27 28 29 27 25 26 26
17 17 18 18 18 18 17 13 16 19 20 20 20 20 18 20 22 21 21 18 22 21 18 18 20 22 24 25 24 24 23 21 21 21 20 22 24 27 26 27 27 26 25 25 27
16 18 18 18 18 17 13 13 18 20 20 19 18 18 17 18 18 18 18 18 20 19 19 20 19 20 23 24 25 24 23 23 18 23 23 22 24 23 25 24 26 25 25 25 26
16 16 19 19 18 17 12 13 19 21 21 19 19 18 17 17 17 17 16 19 18 19 18 15 17 19 22 21 21 20 22 19 19 18 20 21 22 24 23 24 24 23 25 26 26
14 13 19 19 17 14 13 18 20 19 20 18 18 17 17 17 17 19 18 18 20 17 16 16 13 16 19 20 22 21 22 20 18 21 18 19 21 23 23 23 25 24 27 28 27
12 14 19 19 14 13 15 19 18 18 17 17 16 16 17 16 16 17 19 20 20 17 17 16 13 14 17 17 18 21 20 21 18 17 19 20 21 24 22 24 26 25 26 26 26
12 11 18 19 17 15 16 16 17 18 17 18 16 16 15 14 12 14 14 17 18 17 18 16 12 13 13 16 17 19 20 21 19 17 19 20 23 23 23 22 24 26 28 25 23
12 12 14 12 14 15 16 16 16 16 16 16 14 14 14 11 12 12 13 13 15 16 17 13 14 16 15 17 19 19 20 21 21 20 21 22 22 22 21 22 23 24 25 25 25
12 13 14 14 15 15 13 16 15 16 15 15 14 13 11 11 12 12 11 11 12 13 11 11 14 12 16 18 19 19 21 21 22 19 23 22 21 22 21 22 20 21 21 22 21
12 12 13 13 12 13 14 16 14 15 15 16 14 12 11 12 14 14 14 14 13 13 11 11 11 11 13 15 18 18 20 20 18 17 18 22 21 21 20 20 19 19 18 19 20
Height
1531 1528 1525 1521 1519 1516 1513 1511 1509 1508 1506 1505 1504 1502 1501 1500 1500 1499 1498 1500 1500 1501 1502 1505 1507 1509 1511 1510 1508 1508 1519 1528 1520 1516 1515 1509 1509 1511 1513 1513 1516 1518 1521 1528 1532
1531 1527 1524 1521 1517 1514 1512 1509 1507 1505 1504 1502 1501 1500 1498 1497 1496 1495 1496 1496 1498 1500 1501 1502 1505 1507 1509 1511 1509 1508 1517 1517 1510 1514 1512 1517 1513 1510 1515 1518 1519 1521 1528 1531 1535
1530 1526 1523 1519 1515 1513 1510 1507 1505 1503 1501 1500 1499 1498 1497 1495 1494 1492 1492 1493 1496 1498 1499 1500 1504 1507 1509 1506 1507 1505 1508 1504 1506 1504 1508 1510 1508 1511 1509 1515 1512 1517 1525 1531 1534
1529 1525 1521 1517 1513 1510 1508 1506 1503 1501 1499 1498 1496 1496 1495 1495 1498 1492 1493 1493 1495 1496 1496 1497 1502 1505 1504 1505 1501 1503 1491 1493 1495 1501 1507 1506 1508 1506 1504 1506 1509 1513 1521 1528 1533
1529 1525 1521 1516 1512 1508 1505 1503 1501 1499 1497 1495 1494 1494 1495 1494 1490 1491 1493 1494 1494 1494 1494 1495 1497 1500 1499 1498 1500 1497 1490 1492 1490 1493 1499 1499 1506 1506 1507 1508 1515 1519 1524 1528 1532
1527 1523 1519 1515 1510 1506 1503 1501 1499 1497 1495 1494 1492 1492 1494 1495 1488 1490 1492 1493 1493 1493 1493 1494 1494 1498 1498 1496 1497 1491 1488 1489 1487 1489 1490 1493 1504 1504 1512 1513 1518 1521 1524 1528 1531
1525 1521 1517 1513 1508 1504 1501 1498 1496 1494 1493 1492 1490 1490 1491 1488 1488 1490 1491 1492 1493 1492 1493 1494 1495 1498 1496 1493 1492 1489 1491 1485 1481 1484 1490 1495 1499 1504 1509 1514 1517 1522 1526 1529 1530
1523 1519 1514 1510 1506 1501 1499 1496 1493 1492 1491 1490 1489 1489 1486 1485 1487 1488 1489 1491 1492 1492 1493 1495 1495 1495 1495 1493 1491 1492 1492 1502 1480 1482 1493 1492 1514 1505 1507 1511 1516 1521 1526 1529 1531
1521 1516 1512 1508 1503 1500 1497 1494 1491 1490 1490 1489 1489 1489 1483 1484 1485 1486 1487 1488 1491 1492 1492 1494 1496 1493 1492 1496 1506 1501 1509 1499 1490 1481 1486 1491 1506 1501 1503 1510 1515 1520 1523 1527 1529
1519 1514 1509 1506 1502 1498 1496 1493 1491 1489 1489 1489 1489 1492 1483 1484 1483 1484 1485 1487 1489 1491 1492 1494 1494 1495 1497 1506 1524 1510 1506 1498 1496 1482 1484 1492 1495 1499 1503 1505 1510 1516 1518 1524 1527
1516 1511 1507 1503 1500 1498 1496 1493 1494 1493 1488 1487 1486 1484 1480 1482 1484 1484 1485 1486 1488 1490 1494 1491 1501 1508 1500 1499 1496 1497 1501 1504 1492 1481 1484 1492 1493 1494 1498 1506 1510 1514 1517 1520 1524
1513 1508 1504 1502 1500 1498 1497 1496 1497 1498 1488 1481 1480 1481 1478 1481 1483 1482 1485 1487 1487 1493 1491 1498 1506 1495 1493 1494 1496 1496 1504 1503 1493 1478 1478 1486 1495 1495 1500 1503 1506 1509 1515 1515 1521
1512 1507 1502 1499 1499 1498 1497 1497 1496 1495 1493 1479 1476 1476 1477 1479 1479 1480 1483 1484 1486 1490 1492 1502 1496 1490 1492 1496 1500 1497 1504 1503 1501 1485 1481 1490 1508 1506 1503 1504 1507 1508 1510 1510 1515
1510 1505 1501 1498 1499 1496 1496 1496 1496 1494 1504 1484 1475 1474 1475 1476 1476 1475 1480 1483 1486 1491 1491 1495 1486 1490 1491 1494 1496 1511 1486 1490 1491 1497 1511 1486 1529 1515 1506 1501 1501 1503 1506 1508 1510
1508 1504 1500 1497 1496 1496 1496 1493 1493 1493 1513 1475 1473 1472 1472 1475 1475 1474 1474 1480 1484 1485 1490 1494 1485 1489 1492 1487 1486 1491 1482 1486 1486 1496 1496 1502 1520 1506 1502 1507 1498 1496 1496 1499 1503
1506 1500 1497 1495 1495 1496 1493 1490 1491 1505 1503 1477 1471 1471 1474 1473 1473 1474 1475 1478 1479 1481 1484 1485 1477 1480 1481 1476 1478 1475 1480 1487 1492 1504 1527 1504 1512 1511 1502 1492 1489 1490 1492 1493 1498
1503 1498 1493 1492 1493 1494 1491 1489 1504 1510 1474 1482 1477 1473 1474 1476 1473 1474 1476 1479 1488 1495 1498 1485 1479 1473 1472 1478 1474 1477 1497 1525 1525 1529 1531 1501 1505 1496 1475 1477 1473 1475 1483 1486 1492
1499 1496 1493 1492 1491 1492 1490 1491 1506 1485 1485 1477 1476 1474 1477 1475 1473 1470 1479 1485 1479 1486 1500 1504 1507 1474 1467 1474 1480 1481 1490 1523 1530 1535 1519 1498 1512 1481 1460 1462 1468 1468 1470 1480 1485
1496 1494 1492 1492 1490 1490 1492 1507 1502 1489 1485 1483 1478 1485 1488 1480 1475 1472 1477 1490 1479 1479 1500 1503 1497 1472 1469 1466 1468 1476 1489 1481 1506 1508 1521 1506 1484 1464 1456 1455 1462 1465 1470 1473 1476
1494 1491 1491 1492 1490 1491 1495 1502 1491 1485 1483 1484 1496 1492 1501 1492 1488 1486 1487 1489 1484 1481 1478 1486 1499 1478 1470 1462 1462 1468 1467 1494 1509 1518 1522 1508 1497 1490 1462 1455 1456 1461 1466 1469 1473
1494 1492 1491 1491 1490 1492 1503 1499 1487 1485 1484 1489 1494 1495 1498 1499 1493 1493 1498 1490 1486 1482 1480 1488 1493 1487 1474 1480 1484 1484 1481 1489 1496 1511 1523 1527 1503 1466 1460 1454 1458 1463 1465 1467 1470
1496 1494 1492 1492 1493 1493 1495 1486 1486 1487 1486 1489 1492 1494 1497 1497 1497 1491 1496 1491 1489 1486 1493 1491 1499 1503 1488 1476 1474 1471 1476 1483 1511 1510 1512 1511 1502 1464 1458 1451 1449 1456 1460 1466 1471
1497 1494 1491 1492 1499 1497 1489 1485 1487 1488 1491 1493 1497 1497 1495 1499 1503 1496 1492 1489 1491 1490 1495 1494 1507 1517 1500 1489 1480 1481 1479 1480 1482 1494 1504 1514 1502 1462 1460 1451 1455 1457 1460 1469 1473
1499 1498 1492 1492 1492 1492 1492 1493 1493 1494 1494 1495 1498 1497 1499 1503 1504 1508 1504 1497 1494 1493 1493 1494 1508 1515 1527 1511 1500 1494 1484 1479 1484 1502 1498 1497 1481 1469 1463 1457 1454 1455 1455 1471 1471
1502 1499 1500 1500 1494 1492 1491 1494 1496 1498 1499 1499 1503 1505 1506 1516 1513 1514 1511 1505 1498 1499 1497 1498 1509 1503 1502 1497 1491 1489 1484 1477 1480 1479 1485 1478 1477 1469 1467 1464 1461 1460 1460 1471 1462
1505 1504 1500 1497 1494 1493 1495 1497 1500 1500 1502 1506 1508 1509 1509 1517 1518 1519 1517 1515 1513 1505 1505 1503 1510 1508 1501 1491 1488 1487 1478 1475 1472 1472 1464 1466 1473 1461 1462 1463 1464 1466 1466 1465 1469
1505 1504 1503 1498 1495 1497 1498 1496 1501 1500 1506 1505 1507 1509 1512 1514 1513 1513 1513 1512 1512 1513 1514 1513 1513 1518 1514 1499 1490 1497 1483 1476 1480 1479 1471 1470 1464 1460 1465 1466 1472 1472 1474 1471 1473
Wind_Speed
20 21 22 22 20 19 18 19 17 16 16 15 14 15 16 16 13 14 14 3 6 5 4 4 13 13 8 4 1 5 4 2 3 4 3 13 6 19 14 30 19 14 26 32 35
20 21 21 22 21 20 19 18 18 17 15 15 14 14 15 16 15 13 10 10 9 6 6 7 12 15 5 10 4 2 4 8 6 7 2 2 4 17 16 25 12 23 31 32 35
22 23 24 24 22 20 19 18 16 17 16 14 13 13 14 14 12 3 2 7 7 7 10 10 10 8 11 10 10 6 5 9 17 17 10 6 5 26 30 14 31 36 35 35 36
23 25 26 26 23 20 19 18 16 16 15 13 12 11 12 10 1 5 7 7 5 7 10 14 13 5 5 7 18 3 12 8 5 23 14 10 4 20 28 17 39 44 42 37 34
21 23 25 26 25 21 18 17 17 15 13 13 11 9 9 6 9 2 2 0 2 6 12 17 13 8 4 3 8 11 9 14 24 14 27 19 21 10 18 31 34 39 38 36 32
22 23 25 25 24 22 17 16 17 14 11 12 9 8 6 4 5 5 1 2 3 2 13 18 9 3 10 6 5 10 20 11 16 14 3 20 7 11 23 35 34 36 38 36 35
24 25 25 25 24 21 17 16 14 12 11 10 7 6 9 14 6 6 2 2 3 2 11 17 9 10 10 8 7 10 5 7 15 5 20 27 12 15 33 36 34 32 35 34 35
25 26 26 25 23 19 16 15 14 11 8 6 5 5 7 3 3 12 7 6 8 6 7 6 8 18 12 9 8 4 1 3 11 6 16 8 8 19 36 35 32 31 31 32 32
25 26 26 23 21 17 13 16 9 6 5 3 1 4 6 3 9 8 14 9 9 11 11 10 12 7 7 3 5 5 3 4 9 10 11 3 10 27 38 33 30 31 31 30 31
26 26 24 21 18 11 12 10 6 4 4 1 4 6 1 3 3 6 10 14 9 7 11 9 4 2 4 4 5 4 3 5 6 1 12 5 11 21 35 34 33 33 33 30 30
27 26 23 17 13 8 12 8 10 1 14 8 7 12 13 10 2 2 4 10 10 4 4 3 3 5 8 5 6 4 5 7 11 11 12 11 16 23 32 29 28 30 30 31 27
27 25 21 13 5 8 9 9 9 9 10 14 15 19 15 11 8 6 9 5 4 4 2 3 6 9 7 7 8 9 6 11 10 11 6 15 14 15 21 26 33 32 30 34 26
27 24 20 10 4 4 8 9 9 11 4 11 10 13 11 7 9 13 12 9 3 3 3 7 7 12 8 8 8 11 9 2 9 6 10 11 5 4 3 11 26 30 34 36 36
25 23 20 8 2 5 8 9 11 8 4 7 4 4 7 7 4 11 13 10 4 8 6 6 15 9 12 9 8 10 7 12 8 3 4 8 3 3 4 7 12 28 31 31 36
24 24 16 10 4 2 5 7 7 7 4 3 4 4 10 6 3 1 12 19 6 6 6 10 5 6 10 12 7 11 7 10 4 7 6 4 5 5 8 7 9 22 36 37 41
23 24 17 8 5 3 8 7 6 4 1 4 6 5 4 7 5 1 8 4 1 2 2 8 10 6 9 14 8 10 3 5 4 5 2 6 6 4 8 16 13 19 32 41 41
23 21 13 7 4 4 9 5 5 3 6 5 2 1 3 4 4 5 4 3 5 2 5 6 7 5 8 5 5 5 6 2 3 1 5 8 6 8 11 14 21 24 31 39 35
24 16 8 4 6 2 10 4 6 3 4 2 5 3 2 1 6 8 6 3 3 4 1 1 8 2 1 8 9 7 9 6 6 4 4 3 6 9 18 25 16 30 44 38 37
24 12 3 4 8 4 5 5 3 2 4 7 7 7 7 8 4 6 7 5 2 3 7 1 5 7 1 3 8 5 2 8 6 2 4 3 7 4 7 17 16 23 33 37 38
23 12 6 6 7 0 4 3 2 1 3 5 6 6 7 7 9 8 7 5 2 6 2 2 3 3 7 7 3 7 5 2 4 2 2 5 4 6 5 10 10 16 28 34 40
16 6 6 6 8 3 2 5 2 6 5 4 2 3 4 4 5 5 6 2 7 8 11 5 3 7 3 3 3 7 2 6 5 5 5 1 6 5 6 6 11 12 22 31 34
8 2 8 7 1 1 2 4 5 5 12 8 6 6 3 5 5 4 3 4 12 5 4 3 3 3 6 6 4 5 5 5 5 5 1 3 7 4 1 7 15 14 29 30 33
15 6 6 9 1 3 6 2 9 5 5 4 6 5 3 5 5 5 4 4 7 5 3 4 4 4 11 7 6 5 5 5 3 4 6 4 5 2 6 11 20 27 16 7 11
6 3 4 6 6 3 3 5 4 13 10 6 6 9 6 8 8 5 9 7 14 3 2 3 3 5 5 6 5 7 11 6 2 4 4 6 6 6 7 6 11 26 23 5 16
3 2 5 2 5 3 3 3 4 3 8 15 7 7 3 6 5 6 7 7 8 14 10 4 1 3 6 7 4 6 10 10 3 7 6 6 7 2 5 5 12 13 26 21 15
5 5 9 7 9 5 3 4 8 3 4 3 5 11 10 5 3 3 5 5 2 10 8 7 3 5 3 5 7 9 12 9 5 10 4 7 4 5 15 23 24 22 25 26 29
4 4 5 5 5 3 1 3 4 6 7 11 7 5 8 4 10 10 9 11 7 2 4 4 3 5 4 5 4 7 6 3 7 14 6 4 8 10 11 16 16 22 24 24 19
Wind_Direction
356 353 349 344 341 339 335 331 329 324 320 320 316 311 310 306 301 292 280 233 156 193 234 207 164 169 158 244 287 115 82 137 257 327 332 207 146 154 149 140 151 194 163 158 165
356 354 352 347 339 335 335 331 326 324 322 317 315 309 310 311 311 289 276 227 197 213 222 221 177 170 187 197 213 171 123 187 197 131 233 234 208 165 135 154 122 123 149 160 165
354 353 350 348 342 335 331 331 326 321 321 317 313 310 308 315 328 46 106 196 197 232 235 227 187 193 212 175 206 189 204 176 180 193 209 278 291 162 149 171 155 154 160 164 173
351 350 348 346 343 337 330 329 326 321 316 315 313 313 304 309 148 80 80 116 179 247 222 210 203 200 219 199 193 216 240 182 193 198 197 232 216 159 163 177 167 158 158 165 168
346 345 345 344 340 336 330 327 325 319 314 310 313 316 307 284 251 321 185 152 247 259 208 196 208 200 223 194 190 230 269 225 220 204 179 202 210 180 173 159 159 156 164 171 174
344 342 343 342 340 334 329 328 323 317 311 305 309 311 294 280 126 131 225 211 266 242 191 196 210 238 279 258 183 254 270 214 222 228 182 139 168 138 151 151 155 161 171 176 183
344 340 341 340 339 334 330 328 321 314 305 295 298 301 270 253 148 177 272 236 304 173 191 195 226 270 312 319 335 293 283 284 279 104 155 146 140 147 154 156 158 167 178 184 189
343 340 339 339 338 336 332 327 320 312 301 281 292 298 259 114 254 199 197 231 230 226 210 207 285 281 259 289 329 346 66 193 259 103 160 141 160 151 157 161 165 171 185 194 196
341 339 337 337 337 336 344 334 325 316 319 283 228 286 269 179 229 226 233 231 210 219 248 272 284 276 269 27 360 358 234 250 305 158 169 136 152 164 167 164 167 177 190 199 203
340 338 337 337 338 343 2 350 9 63 14 51 203 302 54 355 257 247 218 233 240 226 229 237 251 34 17 87 220 228 217 289 243 42 157 174 162 169 170 170 173 183 191 201 208
341 338 336 337 341 355 13 18 5 337 316 254 269 270 278 351 262 148 196 214 227 254 179 201 99 205 235 214 241 268 293 281 301 296 187 178 159 170 176 175 177 186 193 200 203
342 341 336 338 343 348 15 35 23 330 303 288 260 261 273 285 281 273 228 199 182 199 211 18 201 224 224 250 251 265 277 286 287 285 135 164 167 172 175 182 182 189 199 192 202
343 342 336 331 289 351 350 21 357 331 311 294 231 239 249 238 227 261 210 197 185 229 199 186 228 222 225 252 239 259 234 258 243 348 64 107 34 74 113 152 189 195 197 193 199
343 340 338 332 257 2 39 15 347 338 50 281 205 256 230 209 260 235 222 193 187 206 226 216 245 206 235 243 190 245 228 236 248 161 168 147 240 226 245 175 184 193 199 196 199
342 337 338 311 287 45 356 340 339 313 53 195 203 197 180 178 347 118 196 200 194 230 103 249 224 206 236 239 194 242 222 232 171 202 132 318 110 224 154 223 217 192 192 195 201
339 333 326 287 232 343 337 342 337 47 21 203 163 189 99 223 267 242 156 203 203 236 142 225 269 195 221 248 232 252 278 50 44 109 126 202 136 247 173 213 211 202 194 193 200
338 332 318 264 200 306 328 2 54 100 334 6 330 192 172 233 276 179 193 181 167 54 326 323 280 262 204 255 307 186 75 307 353 56 201 210 128 225 221 204 200 198 197 196 199
339 329 311 88 130 353 349 57 71 303 342 348 354 4 103 141 242 209 148 210 281 90 108 207 316 7 297 185 207 209 154 154 183 183 224 131 217 245 223 225 224 205 191 203 204
339 338 253 158 97 27 359 62 217 20 335 352 351 34 357 349 324 8 159 347 88 134 159 108 271 304 143 297 153 229 127 186 120 107 88 249 279 325 237 226 181 189 187 192 197
341 335 222 160 141 196 64 236 191 60 357 33 47 45 19 333 12 19 18 327 349 16 119 233 326 280 307 354 5 160 168 88 13 189 211 278 289 245 254 227 166 175 187 199 204
342 338 144 144 139 174 147 235 122 83 89 88 55 10 9 360 353 24 354 6 1 331 60 3 102 290 13 44 11 335 46 67 114 134 166 230 272 279 217 118 129 161 188 196 199
358 345 183 189 56 211 202 211 113 59 56 40 64 53 37 13 17 49 46 58 354 352 34 344 125 294 248 274 281 223 236 157 126 269 202 178 275 327 149 100 98 131 181 204 201
336 285 216 212 86 324 301 3 56 39 44 57 31 28 29 22 16 28 56 51 30 51 73 321 10 7 339 3 358 13 339 292 127 98 209 132 268 282 313 119 110 89 85 217 246
344 347 356 139 36 134 51 1 110 55 62 64 29 38 28 24 18 41 12 339 344 80 96 74 93 135 177 219 254 305 320 330 171 128 188 205 229 242 246 174 145 129 122 56 77
334 310 0 319 341 22 50 53 85 71 57 33 30 52 42 32 33 16 4 340 6 12 343 83 239 198 235 260 296 284 304 320 297 226 160 228 213 220 0 356 17 81 120 84 47
359 1 340 305 315 11 48 19 122 69 79 28 69 74 63 81 110 321 19 27 344 339 357 355 301 349 291 291 336 311 306 310 349 349 215 133 46 158 103 79 52 49 58 74 70
347 304 317 301 344 76 236 107 78 125 82 93 83 82 51 1 342 317 295 287 249 292 322 12 44 24 291 329 1 322 350 25 83 23 331 150 153 137 89 81 68 65 57 58 54